| time (UTC) | temp F | wind direction | speed MPH | gust MPH | rain 1hr in | rain 24hr in | rain mn in | humidity % | barometer mb |
| 20260505225203 | 55 | 200 | 13.0 | 24.0 | 0.00 | 0.00 | 0.00 | 78 | 1004.5 |
| 20260505224225 | 55 | 200 | 12.0 | 25.0 | 0.00 | 0.00 | 0.00 | 78 | 1004.2 |
| 20260505223202 | 56 | 192 | 13.0 | 30.0 | 0.00 | 0.00 | 0.00 | 77 | 1004.0 |
| 20260505222203 | 56 | 197 | 16.0 | 34.0 | 0.00 | 0.00 | 0.00 | 76 | 1003.7 |
| 20260505221203 | 56 | 193 | 16.0 | 31.0 | 0.00 | 0.00 | 0.00 | 77 | 1003.9 |
| 20260505220203 | 56 | 197 | 12.0 | 28.0 | 0.00 | 0.00 | 0.00 | 78 | 1004.0 |
| 20260505215204 | 56 | 196 | 12.0 | 34.0 | 0.00 | 0.00 | 0.00 | 78 | 1004.0 |
| 20260505214203 | 57 | 188 | 11.0 | 27.0 | 0.00 | 0.00 | 0.00 | 77 | 1003.9 |
| 20260505213203 | 58 | 195 | 14.0 | 26.0 | 0.00 | 0.00 | 0.00 | 76 | 1004.2 |
| 20260505212203 | 58 | 199 | 14.0 | 32.0 | 0.00 | 0.00 | 0.00 | 75 | 1004.0 |
| 20260505211203 | 59 | 190 | 13.0 | 28.0 | 0.00 | 0.00 | 0.00 | 74 | 1004.0 |
| 20260505210202 | 58 | 181 | 13.0 | 31.0 | 0.00 | 0.00 | 0.00 | 75 | 1004.1 |
| 20260505205203 | 58 | 190 | 14.0 | 34.0 | 0.00 | 0.00 | 0.00 | 74 | 1003.9 |
| 20260505204203 | 59 | 197 | 14.0 | 26.0 | 0.00 | 0.00 | 0.00 | 74 | 1004.0 |
| 20260505203224 | 59 | 191 | 13.0 | 26.0 | 0.00 | 0.00 | 0.00 | 74 | 1004.0 |
| 20260505202203 | 59 | 193 | 15.0 | 29.0 | 0.00 | 0.00 | 0.00 | 74 | 1004.0 |
| 20260505200203 | 59 | 187 | 12.0 | 27.0 | 0.00 | 0.00 | 0.00 | 74 | 1004.4 |
| 20260505195203 | 59 | 211 | 9.0 | 19.0 | 0.00 | 0.00 | 0.00 | 74 | 1004.7 |
| 20260505194203 | 59 | 199 | 8.0 | 19.0 | 0.00 | 0.00 | 0.00 | 73 | 1004.9 |
| 20260505193224 | 59 | 208 | 10.0 | 16.0 | 0.00 | 0.00 | 0.00 | 73 | 1005.1 |
| 20260505192203 | 60 | 210 | 5.0 | 12.0 | 0.00 | 0.00 | 0.00 | 73 | 1005.3 |
| 20260505191204 | 60 | 230 | 5.0 | 17.0 | 0.00 | 0.00 | 0.00 | 73 | 1005.6 |
| 20260505190204 | 60 | 212 | 6.0 | 14.0 | 0.00 | 0.00 | 0.00 | 73 | 1005.5 |
| 20260505185203 | 59 | 213 | 7.0 | 18.0 | 0.00 | 0.00 | 0.00 | 75 | 1005.6 |
| 20260505184203 | 61 | 217 | 6.0 | 19.0 | 0.00 | 0.00 | 0.00 | 72 | 1005.5 |
| 20260505183202 | 60 | 199 | 10.0 | 27.0 | 0.00 | 0.00 | 0.00 | 73 | 1005.6 |
| 20260505182224 | 61 | 198 | 10.0 | 18.0 | 0.00 | 0.00 | 0.00 | 72 | 1005.6 |
| 20260505181202 | 61 | 196 | 12.0 | 22.0 | 0.00 | 0.00 | 0.00 | 71 | 1005.8 |
| 20260505180203 | 60 | 186 | 9.0 | 21.0 | 0.00 | 0.00 | 0.00 | 74 | 1005.9 |
| 20260505175203 | 60 | 188 | 11.0 | 20.0 | 0.00 | 0.00 | 0.00 | 73 | 1006.1 |
| 20260505174202 | 60 | 214 | 6.0 | 17.0 | 0.00 | 0.00 | 0.00 | 74 | 1006.4 |
| 20260505173203 | 61 | 195 | 9.0 | 15.0 | 0.00 | 0.00 | 0.00 | 72 | 1006.5 |
| 20260505172202 | 61 | 204 | 7.0 | 16.0 | 0.00 | 0.00 | 0.00 | 72 | 1006.6 |
| 20260505171203 | 60 | 203 | 11.0 | 21.0 | 0.00 | 0.00 | 0.00 | 73 | 1006.7 |
| 20260505170203 | 60 | 201 | 8.0 | 16.0 | 0.00 | 0.00 | 0.00 | 73 | 1006.8 |
| 20260505165203 | 59 | 201 | 9.0 | 19.0 | 0.00 | 0.00 | 0.00 | 73 | 1006.9 |
| 20260505164203 | 58 | 202 | 10.0 | 23.0 | 0.00 | 0.00 | 0.00 | 74 | 1007.1 |
| 20260505163203 | 59 | 209 | 7.0 | 17.0 | 0.00 | 0.00 | 0.00 | 76 | 1007.2 |
| 20260505162202 | 59 | 211 | 9.0 | 16.0 | 0.00 | 0.00 | 0.00 | 74 | 1007.4 |
| 20260505161203 | 59 | 209 | 7.0 | 16.0 | 0.00 | 0.00 | 0.00 | 76 | 1007.6 |
| 20260505160203 | 58 | 219 | 7.0 | 19.0 | 0.00 | 0.00 | 0.00 | 76 | 1007.8 |
| 20260505153203 | 55 | 232 | 6.0 | 14.0 | 0.00 | 0.00 | 0.00 | 82 | 1008.1 |
| 20260505152203 | 53 | 237 | 9.0 | 17.0 | 0.00 | 0.00 | 0.00 | 83 | 1008.2 |
| 20260505151224 | 53 | 237 | 7.0 | 17.0 | 0.00 | 0.00 | 0.00 | 82 | 1007.9 |
| 20260505150202 | 56 | 221 | 7.0 | 14.0 | 0.00 | 0.00 | 0.00 | 76 | 1007.9 |
| 20260505140204 | 56 | 216 | 6.0 | 17.0 | 0.00 | 0.00 | 0.00 | 80 | 1008.2 |
| 20260505130203 | 55 | 216 | 7.0 | 14.0 | 0.00 | 0.00 | 0.00 | 79 | 1008.2 |
| 20260505124225 | 54 | 201 | 7.0 | 16.0 | 0.00 | 0.00 | 0.00 | 81 | 1007.9 |
| 20260505123202 | 54 | 201 | 8.0 | 17.0 | 0.00 | 0.00 | 0.00 | 81 | 1007.9 |
| 20260505122203 | 53 | 212 | 6.0 | 16.0 | 0.00 | 0.00 | 0.00 | 81 | 1008.0 |
| 20260505121202 | 53 | 228 | 4.0 | 15.0 | 0.00 | 0.00 | 0.00 | 82 | 1008.1 |
| 20260505120203 | 52 | 204 | 7.0 | 16.0 | 0.00 | 0.00 | 0.00 | 83 | 1008.3 |
| 20260505115202 | 51 | 224 | 4.0 | 15.0 | 0.00 | 0.00 | 0.00 | 85 | 1008.2 |
| 20260505114203 | 51 | 208 | 5.0 | 12.0 | 0.00 | 0.00 | 0.00 | 85 | 1008.3 |
| 20260505113203 | 50 | 200 | 5.0 | 13.0 | 0.00 | 0.00 | 0.00 | 86 | 1008.3 |
| 20260505112203 | 50 | 208 | 5.0 | 15.0 | 0.00 | 0.00 | 0.00 | 87 | 1008.4 |
| 20260505111203 | 49 | 206 | 5.0 | 11.0 | 0.00 | 0.00 | 0.00 | 88 | 1008.3 |
| 20260505110202 | 48 | 207 | 3.0 | 13.0 | 0.00 | 0.00 | 0.00 | 88 | 1008.2 |
| 20260505102203 | 48 | 214 | 4.0 | 8.0 | 0.00 | 0.00 | 0.00 | 89 | 1007.9 |
| 20260505101203 | 47 | 210 | 4.0 | 10.0 | 0.00 | 0.00 | 0.00 | 89 | 1007.9 |
| 20260505100245 | 47 | 239 | 3.0 | 10.0 | 0.00 | 0.00 | 0.00 | 90 | 1007.9 |
| 20260505095202 | 46 | 247 | 2.0 | 9.0 | 0.00 | 0.00 | 0.00 | 90 | 1007.9 |
| 20260505094203 | 46 | 256 | 4.0 | 9.0 | 0.00 | 0.00 | 0.00 | 90 | 1007.9 |
| 20260505093224 | 46 | 231 | 3.0 | 9.0 | 0.00 | 0.00 | 0.00 | 89 | 1007.9 |
| 20260505092203 | 46 | 230 | 3.0 | 9.0 | 0.00 | 0.00 | 0.00 | 89 | 1007.8 |
| 20260505091203 | 46 | 257 | 5.0 | 8.0 | 0.00 | 0.00 | 0.00 | 89 | 1007.8 |
| 20260505090203 | 47 | 243 | 3.0 | 10.0 | 0.00 | 0.00 | 0.00 | 89 | 1007.9 |
| 20260505085203 | 47 | 230 | 3.0 | 7.0 | 0.00 | 0.00 | 0.00 | 88 | 1008.0 |
| 20260505084202 | 47 | 208 | 3.0 | 8.0 | 0.00 | 0.00 | 0.00 | 88 | 1008.0 |
| 20260505083203 | 47 | 205 | 3.0 | 7.0 | 0.00 | 0.00 | 0.00 | 87 | 1008.0 |
| 20260505082202 | 47 | 208 | 3.0 | 9.0 | 0.00 | 0.00 | 0.00 | 87 | 1008.0 |
| 20260505081203 | 47 | 244 | 4.0 | 9.0 | 0.00 | 0.00 | 0.00 | 87 | 1008.0 |
| 20260505080203 | 47 | 206 | 2.0 | 6.0 | 0.00 | 0.00 | 0.00 | 87 | 1008.0 |
| 20260505075203 | 48 | 256 | 3.0 | 8.0 | 0.00 | 0.00 | 0.00 | 87 | 1008.0 |
| 20260505074203 | 48 | 237 | 4.0 | 13.0 | 0.00 | 0.00 | 0.00 | 86 | 1007.9 |
| 20260505073203 | 47 | 252 | 3.0 | 9.0 | 0.00 | 0.00 | 0.00 | 86 | 1007.9 |
| 20260505072203 | 47 | 231 | 4.0 | 10.0 | 0.00 | 0.00 | 0.00 | 86 | 1007.8 |
| 20260505071202 | 48 | 231 | 2.0 | 11.0 | 0.00 | 0.00 | 0.00 | 85 | 1007.8 |
| 20260505070203 | 48 | 201 | 4.0 | 14.0 | 0.00 | 0.00 | 0.00 | 85 | 1007.8 |
| 20260505065203 | 48 | 224 | 3.0 | 8.0 | 0.00 | 0.00 | 0.00 | 84 | 1007.7 |
| 20260505064203 | 48 | 248 | 3.0 | 16.0 | 0.00 | 0.00 | 0.00 | 83 | 1007.8 |
| 20260505063203 | 49 | 205 | 4.0 | 10.0 | 0.00 | 0.00 | 0.00 | 83 | 1007.8 |
| 20260505062203 | 49 | 218 | 4.0 | 10.0 | 0.00 | 0.00 | 0.00 | 83 | 1007.7 |
| 20260505061203 | 49 | 231 | 6.0 | 10.0 | 0.00 | 0.00 | 0.00 | 83 | 1007.7 |
| 20260505060204 | 49 | 207 | 3.0 | 11.0 | 0.00 | 0.00 | 0.00 | 82 | 1007.8 |
| 20260505055202 | 49 | 209 | 3.0 | 11.0 | 0.00 | 0.00 | 0.00 | 82 | 1007.8 |
| 20260505054204 | 49 | 224 | 5.0 | 11.0 | 0.00 | 0.00 | 0.00 | 81 | 1007.8 |
| 20260505053203 | 49 | 211 | 3.0 | 10.0 | 0.00 | 0.00 | 0.00 | 81 | 1007.8 |
| 20260505052202 | 50 | 211 | 6.0 | 12.0 | 0.00 | 0.00 | 0.00 | 80 | 1007.7 |
| 20260505051203 | 49 | 227 | 5.0 | 11.0 | 0.00 | 0.00 | 0.00 | 80 | 1007.7 |
| 20260505050202 | 50 | 237 | 6.0 | 10.0 | 0.00 | 0.00 | 0.00 | 80 | 1007.6 |
| 20260505041202 | 51 | 209 | 3.0 | 10.0 | 0.00 | 0.00 | 0.00 | 77 | 1007.2 |
| 20260505040203 | 51 | 227 | 4.0 | 11.0 | 0.00 | 0.00 | 0.00 | 76 | 1007.3 |
| 20260505035223 | 52 | 197 | 4.0 | 15.0 | 0.00 | 0.00 | 0.00 | 76 | 1007.1 |
| 20260505034203 | 51 | 221 | 6.0 | 13.0 | 0.00 | 0.00 | 0.00 | 77 | 1007.0 |
| 20260505033203 | 51 | 233 | 5.0 | 14.0 | 0.00 | 0.00 | 0.00 | 77 | 1007.0 |
| 20260505032203 | 51 | 217 | 6.0 | 12.0 | 0.00 | 0.00 | 0.00 | 77 | 1006.9 |
| 20260505031224 | 52 | 209 | 3.0 | 12.0 | 0.00 | 0.00 | 0.00 | 76 | 1007.0 |
| 20260505030203 | 52 | 208 | 5.0 | 12.0 | 0.00 | 0.00 | 0.00 | 76 | 1006.9 |
| 20260505025203 | 52 | 248 | 5.0 | 12.0 | 0.00 | 0.00 | 0.00 | 76 | 1007.0 |
| 20260505024202 | 52 | 236 | 4.0 | 11.0 | 0.00 | 0.00 | 0.00 | 76 | 1006.9 |
| 20260505023225 | 52 | 221 | 5.0 | 13.0 | 0.00 | 0.00 | 0.00 | 76 | 1006.8 |
| 20260505022203 | 51 | 252 | 6.0 | 13.0 | 0.00 | 0.00 | 0.00 | 77 | 1006.7 |
| 20260505021202 | 51 | 242 | 6.0 | 15.0 | 0.00 | 0.00 | 0.00 | 78 | 1006.7 |
| 20260505020245 | 51 | 240 | 5.0 | 14.0 | 0.00 | 0.00 | 0.00 | 79 | 1006.7 |
| 20260505015203 | 50 | 230 | 5.0 | 15.0 | 0.00 | 0.00 | 0.00 | 79 | 1006.6 |
| 20260505014202 | 51 | 237 | 5.0 | 14.0 | 0.00 | 0.00 | 0.00 | 79 | 1006.6 |
| 20260505013203 | 50 | 238 | 6.0 | 15.0 | 0.00 | 0.00 | 0.00 | 80 | 1006.4 |
| 20260505012203 | 50 | 231 | 4.0 | 14.0 | 0.00 | 0.00 | 0.00 | 79 | 1006.3 |
| 20260505011203 | 50 | 239 | 7.0 | 13.0 | 0.00 | 0.00 | 0.00 | 80 | 1006.2 |
| 20260505010203 | 50 | 244 | 8.0 | 17.0 | 0.00 | 0.00 | 0.00 | 79 | 1006.1 |
| 20260505005224 | 50 | 241 | 5.0 | 15.0 | 0.00 | 0.00 | 0.00 | 79 | 1006.1 |
| 20260505004225 | 50 | 238 | 6.0 | 12.0 | 0.00 | 0.00 | 0.00 | 78 | 1005.9 |
| 20260505003203 | 50 | 238 | 5.0 | 10.0 | 0.00 | 0.00 | 0.00 | 78 | 1005.7 |
| 20260505002203 | 49 | 232 | 4.0 | 9.0 | 0.00 | 0.00 | 0.00 | 79 | 1005.7 |
| 20260505001203 | 49 | 256 | 3.0 | 9.0 | 0.00 | 0.00 | 0.00 | 78 | 1005.6 |
| 20260505000204 | 50 | 211 | 2.0 | 11.0 | 0.00 | 0.00 | 0.00 | 77 | 1005.6 |
| 20260504235204 | 50 | 268 | 2.0 | 12.0 | 0.00 | 0.00 | 0.00 | 76 | 1005.5 |
| 20260504234203 | 50 | 193 | 3.0 | 8.0 | 0.00 | 0.00 | 0.00 | 75 | 1005.2 |
| 20260504233203 | 51 | 182 | 2.0 | 7.0 | 0.00 | 0.00 | 0.00 | 74 | 1005.2 |
| 20260504232203 | 51 | 203 | 2.0 | 7.0 | 0.00 | 0.00 | 0.00 | 72 | 1005.0 |
| 20260504231203 | 52 | 194 | 4.0 | 8.0 | 0.00 | 0.00 | 0.00 | 72 | 1005.0 |
| 20260504230202 | 52 | 191 | 3.0 | 6.0 | 0.00 | 0.00 | 0.00 | 70 | 1004.9 |